| time (UTC) | temp C | wind direction | speed KPH | gust KPH | rain 1hr cm | rain 24hr cm | rain mn cm | humidity % | barometer mb |
| 20260510185845 | 26 | 110 | 1.6 | 14.5 | 0.00 | 0.38 | 0.00 | 73 | 1016.3 |
| 20260510185339 | 26 | 209 | 4.8 | 14.5 | 0.00 | 0.38 | 0.00 | 73 | 1016.3 |
| 20260510184336 | 26 | 196 | 9.7 | 12.9 | 0.00 | 0.43 | 0.00 | 74 | 1016.3 |
| 20260510182829 | 26 | 194 | 3.2 | 12.9 | 0.00 | 0.51 | 0.00 | 73 | 1016.6 |
| 20260510181320 | 26 | 189 | 6.4 | 12.9 | 0.00 | 0.56 | 0.00 | 71 | 1017.0 |
| 20260510175819 | 26 | 199 | 6.4 | 12.9 | 0.00 | 0.56 | 0.00 | 71 | 1017.0 |
| 20260510175313 | 26 | 141 | 4.8 | 11.3 | 0.00 | 0.66 | 0.00 | 69 | 1017.0 |
| 20260510173808 | 26 | 177 | 3.2 | 12.9 | 0.00 | 0.84 | 0.00 | 72 | 1017.3 |
| 20260510172801 | 26 | 264 | 1.6 | 16.1 | 0.00 | 1.09 | 0.00 | 72 | 1017.0 |
| 20260510171758 | 26 | 173 | 6.4 | 11.3 | 0.00 | 1.17 | 0.00 | 72 | 1017.3 |
| 20260510165749 | 25 | 221 | 3.2 | 16.1 | 0.00 | 1.70 | 0.00 | 73 | 1017.6 |
| 20260510164241 | 26 | 22 | 6.4 | 12.9 | 0.00 | 1.80 | 0.00 | 72 | 1017.3 |
| 20260510163234 | 25 | 201 | 4.8 | 14.5 | 0.00 | 1.83 | 0.00 | 74 | 1017.3 |
| 20260510161730 | 25 | 351 | 3.2 | 12.9 | 0.00 | 1.98 | 0.00 | 74 | 1017.6 |
| 20260510160724 | 25 | 29 | 3.2 | 12.9 | 0.00 | 2.46 | 0.00 | 76 | 1017.3 |
| 20260510155720 | 25 | 244 | 4.8 | 17.7 | 0.00 | 2.72 | 0.00 | 77 | 1017.6 |
| 20260510155216 | 23 | 144 | 1.6 | 16.1 | 0.00 | 2.74 | 0.00 | 78 | 1017.0 |
| 20260510153710 | 23 | 189 | 6.4 | 11.3 | 0.00 | 2.77 | 0.00 | 79 | 1017.3 |
| 20260510152705 | 23 | 248 | 4.8 | 17.7 | 0.00 | 2.77 | 0.00 | 81 | 1017.3 |
| 20260510151702 | 23 | 352 | 11.3 | 16.1 | 0.00 | 2.77 | 0.00 | 82 | 1017.3 |
| 20260510150656 | 23 | 9 | 4.8 | 12.9 | 0.00 | 2.77 | 0.00 | 82 | 1017.3 |
| 20260510145653 | 23 | 21 | 4.8 | 11.3 | 0.00 | 2.77 | 0.00 | 83 | 1017.3 |
| 20260510144647 | 22 | 182 | 0.0 | 16.1 | 0.00 | 2.77 | 0.00 | 84 | 1017.3 |
| 20260510143643 | 23 | 119 | 3.2 | 12.9 | 0.00 | 2.79 | 0.00 | 84 | 1017.3 |
| 20260510142637 | 22 | 342 | 9.7 | 14.5 | 0.00 | 2.82 | 0.00 | 86 | 1017.0 |
| 20260510141636 | 22 | 18 | 3.2 | 14.5 | 0.00 | 2.84 | 0.00 | 88 | 1017.3 |
| 20260510140625 | 21 | 322 | 4.8 | 14.5 | 0.00 | 2.90 | 0.00 | 89 | 1017.0 |
| 20260510135622 | 21 | 195 | 4.8 | 12.9 | 0.00 | 3.25 | 0.00 | 90 | 1017.3 |
| 20260510134613 | 21 | 322 | 3.2 | 9.7 | 0.00 | 3.43 | 0.00 | 92 | 1017.3 |
| 20260510133609 | 21 | 351 | 6.4 | 12.9 | 0.00 | 4.06 | 0.00 | 93 | 1017.3 |
| 20260510132603 | 20 | 26 | 3.2 | 14.5 | 0.00 | 4.52 | 0.00 | 94 | 1017.0 |
| 20260510131601 | 20 | 352 | 8.0 | 11.3 | 0.00 | 4.65 | 0.00 | 94 | 1017.0 |
| 20260510130554 | 20 | 15 | 6.4 | 11.3 | 0.00 | 4.65 | 0.00 | 95 | 1017.0 |
| 20260510125551 | 20 | 320 | 6.4 | 16.1 | 0.00 | 4.65 | 0.00 | 95 | 1016.6 |
| 20260510125045 | 20 | 337 | 9.7 | 14.5 | 0.00 | 4.65 | 0.00 | 95 | 1016.3 |
| 20260510123541 | 20 | 45 | 1.6 | 11.3 | 0.00 | 4.65 | 0.00 | 95 | 1016.3 |
| 20260510123036 | 20 | 268 | 3.2 | 6.4 | 0.00 | 4.65 | 0.00 | 95 | 1015.9 |
| 20260510121532 | 20 | 126 | 0.0 | 6.4 | 0.00 | 4.65 | 0.00 | 95 | 1015.9 |
| 20260510120526 | 19 | 156 | 1.6 | 3.2 | 0.00 | 4.65 | 0.00 | 95 | 1015.6 |
| 20260510115522 | 19 | 250 | 0.0 | 6.4 | 0.00 | 4.65 | 0.00 | 96 | 1015.6 |
| 20260510114516 | 19 | 192 | 6.4 | 9.7 | 0.00 | 4.65 | 0.00 | 96 | 1015.3 |
| 20260510113513 | 19 | 163 | 3.2 | 9.7 | 0.00 | 4.65 | 0.00 | 96 | 1015.3 |
| 20260510112507 | 19 | 134 | 1.6 | 9.7 | 0.00 | 4.65 | 0.00 | 96 | 1015.3 |
| 20260510111504 | 19 | 123 | 3.2 | 11.3 | 0.00 | 4.65 | 0.00 | 96 | 1015.3 |
| 20260510110458 | 18 | 340 | 1.6 | 4.8 | 0.00 | 4.65 | 0.00 | 95 | 1014.9 |
| 20260510105455 | 18 | 301 | 0.0 | 6.4 | 0.00 | 4.65 | 0.00 | 95 | 1014.9 |
| 20260510104449 | 18 | 164 | 1.6 | 4.8 | 0.00 | 4.65 | 0.00 | 95 | 1014.6 |
| 20260510103446 | 18 | 175 | 1.6 | 4.8 | 0.00 | 4.65 | 0.00 | 95 | 1014.2 |
| 20260510102438 | 18 | 24 | 0.0 | 3.2 | 0.00 | 4.65 | 0.00 | 95 | 1014.2 |
| 20260510101435 | 18 | 181 | 1.6 | 6.4 | 0.00 | 4.65 | 0.00 | 95 | 1014.2 |
| 20260510100929 | 18 | 272 | 0.0 | 3.2 | 0.00 | 4.65 | 0.00 | 95 | 1013.9 |
| 20260510095426 | 19 | 199 | 0.0 | 4.8 | 0.00 | 4.65 | 0.00 | 95 | 1013.9 |
| 20260510094419 | 19 | 24 | 1.6 | 6.4 | 0.00 | 4.65 | 0.00 | 94 | 1013.9 |
| 20260510093417 | 19 | 62 | 1.6 | 4.8 | 0.00 | 4.65 | 0.00 | 94 | 1013.9 |
| 20260510091407 | 19 | 21 | 3.2 | 12.9 | 0.00 | 4.65 | 0.00 | 94 | 1013.9 |
| 20260510090401 | 19 | 308 | 9.7 | 14.5 | 0.00 | 4.65 | 0.00 | 94 | 1013.6 |
| 20260510085401 | 19 | 15 | 6.4 | 16.1 | 0.00 | 4.65 | 0.00 | 94 | 1013.6 |
| 20260510084351 | 19 | 356 | 12.9 | 14.5 | 0.00 | 4.65 | 0.00 | 93 | 1013.6 |
| 20260510083347 | 20 | 356 | 8.0 | 16.1 | 0.00 | 4.65 | 0.00 | 93 | 1013.6 |
| 20260510082341 | 20 | 44 | 4.8 | 14.5 | 0.00 | 4.65 | 0.00 | 92 | 1013.6 |
| 20260510081337 | 20 | 339 | 4.8 | 12.9 | 0.00 | 4.65 | 0.00 | 91 | 1013.6 |
| 20260510080331 | 19 | 34 | 6.4 | 12.9 | 0.00 | 4.65 | 0.00 | 91 | 1013.6 |
| 20260510075330 | 19 | 39 | 4.8 | 11.3 | 0.00 | 4.65 | 0.00 | 92 | 1013.6 |
| 20260510074330 | 19 | 45 | 1.6 | 12.9 | 0.00 | 4.65 | 0.00 | 92 | 1013.6 |
| 20260510073326 | 19 | 32 | 4.8 | 12.9 | 0.00 | 4.65 | 0.00 | 92 | 1013.2 |
| 20260510072320 | 19 | 339 | 9.7 | 11.3 | 0.00 | 4.65 | 0.00 | 93 | 1013.2 |
| 20260510071317 | 19 | 20 | 3.2 | 6.4 | 0.00 | 4.65 | 0.00 | 94 | 1013.6 |
| 20260510070311 | 19 | 25 | 3.2 | 6.4 | 0.00 | 4.65 | 0.00 | 94 | 1013.6 |
| 20260510065308 | 19 | 349 | 3.2 | 4.8 | 0.00 | 4.65 | 0.00 | 94 | 1013.2 |
| 20260510064302 | 19 | 318 | 0.0 | 9.7 | 0.00 | 4.65 | 0.00 | 95 | 1013.6 |
| 20260510063759 | 19 | 342 | 3.2 | 9.7 | 0.00 | 4.65 | 0.00 | 95 | 1012.9 |
| 20260510062253 | 19 | 109 | 1.6 | 6.4 | 0.00 | 4.65 | 0.00 | 95 | 1013.2 |
| 20260510061250 | 19 | 322 | 0.0 | 6.4 | 0.00 | 4.65 | 0.00 | 95 | 1013.2 |
| 20260510060243 | 18 | 39 | 0.0 | 3.2 | 0.00 | 4.65 | 0.00 | 95 | 1013.6 |
| 20260510055740 | 18 | 280 | 0.0 | 0.0 | 0.00 | 4.65 | 0.00 | 95 | 1013.2 |
| 20260510054233 | 18 | 39 | 0.0 | 0.0 | 0.00 | 4.65 | 0.00 | 95 | 1012.9 |
| 20260510053229 | 18 | 175 | 0.0 | 1.6 | 0.00 | 4.65 | 0.00 | 95 | 1013.2 |
| 20260510051221 | 19 | 181 | 0.0 | 0.0 | 0.00 | 4.65 | 0.00 | 96 | 1013.2 |
| 20260510050214 | 18 | 191 | 0.0 | 9.7 | 0.00 | 4.65 | 0.00 | 96 | 1013.6 |
| 20260510045211 | 18 | 186 | 6.4 | 6.4 | 0.00 | 4.65 | 4.80 | 96 | 1013.2 |
| 20260510044205 | 18 | 168 | 0.0 | 3.2 | 0.00 | 4.65 | 4.80 | 96 | 1013.6 |
| 20260510043703 | 18 | 185 | 0.0 | 9.7 | 0.00 | 4.65 | 4.80 | 96 | 1013.6 |
| 20260510042156 | 18 | 204 | 0.0 | 4.8 | 0.00 | 4.65 | 4.80 | 96 | 1013.6 |
| 20260510041153 | 18 | 192 | 0.0 | 4.8 | 0.00 | 4.65 | 4.80 | 96 | 1013.2 |
| 20260510040147 | 18 | 188 | 0.0 | 3.2 | 0.00 | 4.65 | 4.80 | 96 | 1013.6 |
| 20260510035645 | 18 | 243 | 0.0 | 4.8 | 0.00 | 4.65 | 4.80 | 96 | 1014.2 |
| 20260510034138 | 19 | 327 | 1.6 | 4.8 | 0.00 | 4.65 | 4.80 | 96 | 1014.2 |
| 20260510033135 | 19 | 185 | 0.0 | 4.8 | 0.00 | 4.65 | 4.80 | 96 | 1014.2 |
| 20260510032129 | 19 | 175 | 0.0 | 0.0 | 0.00 | 4.65 | 4.80 | 96 | 1014.2 |
| 20260510031627 | 19 | 199 | 0.0 | 0.0 | 0.00 | 4.65 | 4.80 | 96 | 1014.2 |
| 20260510030120 | 19 | 192 | 0.0 | 0.0 | 0.00 | 4.65 | 4.80 | 96 | 1014.2 |
| 20260510025118 | 19 | 192 | 0.0 | 0.0 | 0.00 | 4.65 | 4.80 | 96 | 1014.2 |
| 20260510024112 | 19 | 188 | 0.0 | 3.2 | 0.00 | 4.65 | 4.80 | 96 | 1014.2 |
| 20260510023109 | 19 | 331 | 0.0 | 1.6 | 0.00 | 4.65 | 4.80 | 96 | 1013.9 |
| 20260510022605 | 19 | 212 | 0.0 | 3.2 | 0.00 | 4.65 | 4.80 | 96 | 1013.6 |
| 20260510021100 | 19 | 178 | 0.0 | 3.2 | 0.00 | 4.65 | 4.80 | 96 | 1013.6 |
| 20260510020055 | 19 | 43 | 0.0 | 11.3 | 0.00 | 4.65 | 4.80 | 96 | 1013.6 |
| 20260510015052 | 19 | 184 | 1.6 | 14.5 | 0.00 | 4.65 | 4.80 | 96 | 1013.6 |
| 20260510014045 | 19 | 206 | 0.0 | 11.3 | 0.00 | 4.65 | 4.80 | 96 | 1013.2 |
| 20260510013543 | 19 | 212 | 4.8 | 12.9 | 0.00 | 4.65 | 4.80 | 96 | 1013.6 |
| 20260510012035 | 19 | 188 | 1.6 | 11.3 | 0.00 | 4.65 | 4.80 | 96 | 1013.2 |
| 20260510011033 | 19 | 199 | 1.6 | 11.3 | 0.00 | 4.65 | 4.80 | 96 | 1013.2 |
| 20260510010029 | 19 | 198 | 3.2 | 6.4 | 0.00 | 4.65 | 4.80 | 96 | 1013.2 |
| 20260510005024 | 19 | 207 | 1.6 | 11.3 | 0.00 | 4.65 | 4.80 | 96 | 1013.6 |
| 20260510004018 | 19 | 191 | 1.6 | 6.4 | 0.00 | 4.65 | 4.80 | 96 | 1013.6 |
| 20260510003516 | 19 | 174 | 1.6 | 6.4 | 0.08 | 4.65 | 4.80 | 96 | 1013.2 |
| 20260510002009 | 19 | 104 | 0.0 | 9.7 | 0.10 | 4.65 | 4.80 | 96 | 1013.2 |
| 20260510001006 | 19 | 192 | 0.0 | 6.4 | 0.10 | 4.65 | 4.80 | 96 | 1013.2 |
| 20260510000000 | 19 | 183 | 3.2 | 4.8 | 0.10 | 4.65 | 4.80 | 96 | 1012.9 |
| 20260509234957 | 19 | 184 | 3.2 | 4.8 | 0.13 | 4.65 | 4.80 | 96 | 1013.2 |
| 20260509234452 | 19 | 155 | 3.2 | 4.8 | 0.13 | 4.65 | 4.80 | 96 | 1013.6 |
| 20260509232947 | 19 | 183 | 1.6 | 3.2 | 0.05 | 4.57 | 4.72 | 96 | 1013.6 |
| 20260509231941 | 19 | 177 | 1.6 | 1.6 | 0.03 | 4.55 | 4.70 | 96 | 1013.6 |
| 20260509225932 | 19 | 192 | 0.0 | 6.4 | 0.03 | 4.57 | 4.70 | 96 | 1013.2 |
| 20260509224929 | 19 | 178 | 0.0 | 0.0 | 0.00 | 4.55 | 4.65 | 96 | 1012.9 |
| 20260509223922 | 19 | 177 | 0.0 | 3.2 | 0.03 | 4.65 | 4.65 | 96 | 1013.2 |
| 20260509223422 | 19 | 191 | 0.0 | 0.0 | 0.03 | 4.70 | 4.65 | 96 | 1013.2 |
| 20260509221914 | 19 | 177 | 0.0 | 4.8 | 0.03 | 4.72 | 4.65 | 96 | 1012.6 |
| 20260509221412 | 19 | 216 | 0.0 | 4.8 | 0.03 | 4.72 | 4.65 | 96 | 1012.6 |
| 20260509215905 | 19 | 173 | 1.6 | 4.8 | 0.03 | 4.75 | 4.65 | 96 | 1012.6 |
| 20260509215402 | 19 | 178 | 0.0 | 4.8 | 0.03 | 4.80 | 4.65 | 96 | 1012.6 |
| 20260509213855 | 19 | 325 | 0.0 | 11.3 | 0.00 | 4.88 | 4.62 | 96 | 1012.9 |
| 20260509213354 | 19 | 184 | 3.2 | 14.5 | 0.00 | 5.16 | 4.62 | 96 | 1012.6 |
| 20260509212346 | 19 | 181 | 3.2 | 12.9 | 0.03 | 5.41 | 4.62 | 96 | 1012.2 |
| 20260509210843 | 19 | 188 | 4.8 | 6.4 | 0.05 | 6.07 | 4.62 | 96 | 1012.6 |
| 20260509205836 | 19 | 174 | 0.0 | 9.7 | 0.08 | 6.60 | 4.62 | 96 | 1012.2 |
| 20260509204834 | 19 | 173 | 1.6 | 11.3 | 0.13 | 7.21 | 4.62 | 96 | 1012.2 |
| 20260509203827 | 18 | 187 | 3.2 | 4.8 | 0.15 | 8.10 | 4.62 | 96 | 1012.2 |
| 20260509202824 | 18 | 199 | 1.6 | 6.4 | 0.18 | 8.15 | 4.62 | 96 | 1012.6 |
| 20260509202319 | 18 | 198 | 1.6 | 1.6 | 0.18 | 8.13 | 4.60 | 96 | 1013.2 |
| 20260509200815 | 18 | 131 | 0.0 | 4.8 | 0.15 | 8.10 | 4.57 | 96 | 1013.6 |
| 20260509195809 | 18 | 181 | 3.2 | 6.4 | 0.13 | 8.08 | 4.55 | 96 | 1013.6 |
| 20260509195307 | 18 | 183 | 3.2 | 4.8 | 0.08 | 8.03 | 4.50 | 96 | 1013.2 |
| 20260509193759 | 18 | 199 | 1.6 | 4.8 | 0.10 | 8.00 | 4.47 | 96 | 1013.6 |
| 20260509192756 | 18 | 171 | 0.0 | 3.2 | 0.15 | 7.98 | 4.45 | 96 | 1013.9 |
| 20260509191749 | 18 | 178 | 0.0 | 4.8 | 0.15 | 7.95 | 4.42 | 96 | 1013.9 |
| 20260509191247 | 18 | 213 | 0.0 | 4.8 | 0.18 | 7.95 | 4.42 | 96 | 1013.6 |